Bradford, PA

2:10 PM EDT on October 14, 2019 (GMT -0400)
Bradford Regional

Weather History for KBFD - August, 2019

Change the Weather History Date:

Thursday, August 8, 2019

  Actual Average Record
Temperature  
Mean Temperature 68 °F 65 °F  
Max Temperature 76 °F 77 °F 92 °F (2001)
Min Temperature 59 °F 53 °F 39 °F (2002)
Degree Days  
Heating Degree Days 0 0  
Month to date heating degree days 0 0  
Since 1 June heating degree days 134 209  
Since 1 July heating degree days 12 64  
Cooling Degree Days 3 2  
Month to date cooling degree days 22 16  
Year to date cooling degree days 212 140  
Since 1 June cooling degree days 205 130  
Growing Degree Days 19 (Base 50)    
Moisture  
Dew Point 62 °F    
Average Humidity 80    
Maximum Humidity 100    
Minimum Humidity 60    
Precipitation  
Precipitation 0.63 in 0.13 in 0.63 in (2019)
Month to date precipitation 1.77 1.08  
Year to date precipitation 29.74 26.92  
Sea Level Pressure  
Sea Level Pressure 29.79 in    
Wind  
Wind Speed 7 mph (West)    
Max Wind Speed 26 mph    
Max Gust Speed 36 mph    
Visibility 5 miles    
Events Fog , Rain , Thunderstorm    
T = Trace of Precipitation, MM = Missing Value Source: NWS Daily Summary

Daily Weather History Graph

Daily Weather History Graph

Search for Another Location

Airport or City:

Astronomy

Aug. 08, 2019 Rise Set
Actual Time 6:15 AM EDT 8:24 PM EDT
Civil Twilight 5:44 AM EDT 8:54 PM EDT
Nautical Twilight 5:06 AM EDT 9:32 PM EDT
Astronomical Twilight 4:25 AM EDT 10:13 PM EDT
Moon 2:58 PM EDT (8/8) 12:37 AM EDT (8/8)
Length of Visible Light 15h 10m
Length of Day
14h 09m
First Quarter, 60% of the Moon is Illuminated
Aug 8
First Quarter
Aug 15
Full
Aug 23
Last Quarter
Aug 30
New
Sep 5
First Quarter

Hourly Weather History & Observations

Time (EDT) Temp. Dew Point Humidity Pressure Visibility Wind Dir Wind Speed Gust Speed Precip Events Conditions
12:03 AM 63.0 °F 63.0 °F 100% 29.85 in 0.2 mi Calm Calm - N/A Fog Fog
12:53 AM 63.0 °F 63.0 °F 100% 29.81 in 0.2 mi WSW 4.6 mph - N/A Fog Fog
1:53 AM 63.0 °F 63.0 °F 100% 29.80 in 0.2 mi West 3.5 mph - N/A Fog Fog
2:19 AM 63.0 °F 63.0 °F 100% 29.84 in 0.5 mi Calm Calm - N/A Fog Fog
2:29 AM 63.0 °F 63.0 °F 100% 29.84 in 0.2 mi SW 4.6 mph - N/A Fog Fog
2:53 AM 63.0 °F 63.0 °F 100% 29.80 in 0.2 mi WSW 3.5 mph - N/A Fog Fog
3:33 AM 63.0 °F 63.0 °F 100% 29.84 in 0.5 mi West 6.9 mph - N/A Fog Fog
3:46 AM 63.0 °F 63.0 °F 100% 29.84 in 1.5 mi West 4.6 mph - N/A   Overcast
3:53 AM 63.0 °F 63.0 °F 100% 29.80 in 1.2 mi West 5.8 mph - N/A   Overcast
4:24 AM 63.0 °F 63.0 °F 100% 29.83 in 0.8 mi West 4.6 mph - N/A   Overcast
4:45 AM 63.0 °F 63.0 °F 100% 29.83 in 1.0 mi Variable 3.5 mph - N/A   Overcast
4:53 AM 63.0 °F 63.0 °F 100% 29.79 in 0.8 mi West 4.6 mph - N/A   Mist
5:00 AM 63.0 °F 63.0 °F 100% 29.82 in 1.8 mi Variable 4.6 mph - N/A   Overcast
5:07 AM 64.0 °F 64.0 °F 100% 29.82 in 2.5 mi Variable 4.6 mph - N/A   Overcast
5:17 AM 64.0 °F 64.0 °F 100% 29.82 in 1.0 mi SW 4.6 mph - N/A   Overcast
5:26 AM 64.0 °F 64.0 °F 100% 29.82 in 0.5 mi WSW 5.8 mph - N/A Fog Fog
5:39 AM 64.0 °F 64.0 °F 100% 29.82 in 1.5 mi West 3.5 mph - N/A   Overcast
5:46 AM 63.0 °F 63.0 °F 100% 29.82 in 3.0 mi Variable 3.5 mph - N/A   Overcast
5:53 AM 63.0 °F 63.0 °F 100% 29.78 in 6.0 mi Variable 3.5 mph - N/A   Overcast
6:11 AM 64.0 °F 63.0 °F 96% 29.81 in 8.0 mi Calm Calm - N/A   Overcast
6:35 AM 64.0 °F 63.0 °F 96% 29.82 in 6.0 mi Calm Calm - N/A   Overcast
6:53 AM 64.0 °F 63.0 °F 96% 29.78 in 7.0 mi Variable 3.5 mph - N/A   Mostly Cloudy
7:28 AM 64.0 °F 63.0 °F 96% 29.82 in 6.0 mi SW 3.5 mph - N/A   Overcast
7:53 AM 64.0 °F 63.0 °F 96% 29.78 in 6.0 mi WSW 4.6 mph - N/A   Overcast
8:39 AM 64.9 °F 62.1 °F 90% 29.81 in 9.0 mi WSW 6.9 mph - N/A   Mostly Cloudy
8:53 AM 64.9 °F 63.0 °F 93% 29.78 in 9.0 mi WSW 5.8 mph - N/A   Scattered Clouds
9:53 AM 68.0 °F 63.0 °F 84% 29.76 in 10.0 mi Variable 6.9 mph - N/A   Partly Cloudy
10:53 AM 72.0 °F 62.1 °F 71% 29.76 in 10.0 mi West 8.1 mph - N/A   Clear
11:53 AM 73.9 °F 62.1 °F 66% 29.75 in 10.0 mi Variable 6.9 mph 19.6 mph N/A   Mostly Cloudy
12:53 PM 73.9 °F 61.0 °F 64% 29.72 in 10.0 mi WSW 11.5 mph 23.0 mph N/A Thunderstorm Mostly Cloudy
1:45 PM 70.0 °F 64.9 °F 84% 29.77 in 4.0 mi NW 8.1 mph - 0.06 in Rain , Thunderstorm Thunderstorms and Rain
1:49 PM 69.8 °F 66.2 °F 88% 29.77 in 1.8 mi North 12.7 mph 17.3 mph 0.13 in Rain , Thunderstorm Thunderstorms and Rain
1:53 PM 66.9 °F 64.9 °F 93% 29.76 in 0.5 mi WNW 24.2 mph 33.4 mph 0.30 in Fog , Rain , Thunderstorm Heavy Thunderstorms and Rain
1:58 PM 64.9 °F 63.0 °F 93% 29.79 in 0.2 mi WNW 15.0 mph 35.7 mph 0.28 in Fog , Rain , Thunderstorm Heavy Thunderstorms and Rain
2:06 PM 64.9 °F 63.0 °F 93% 29.79 in 0.8 mi West 13.8 mph 24.2 mph 0.32 in Rain , Thunderstorm Thunderstorms and Rain
2:09 PM 64.9 °F 62.1 °F 90% 29.79 in 2.5 mi West 15.0 mph 21.9 mph 0.32 in Rain , Thunderstorm Light Thunderstorms and Rain
2:12 PM 64.9 °F 62.1 °F 90% 29.79 in 5.0 mi West 12.7 mph 21.9 mph 0.33 in Rain , Thunderstorm Light Thunderstorms and Rain
2:15 PM 64.9 °F 62.1 °F 90% 29.79 in 9.0 mi West 8.1 mph 20.7 mph 0.33 in Rain , Thunderstorm Light Rain
2:30 PM 66.0 °F 63.0 °F 90% 29.78 in 10.0 mi West 9.2 mph - 0.33 in   Mostly Cloudy
2:53 PM 69.1 °F 64.9 °F 87% 29.74 in 10.0 mi Variable 6.9 mph - 0.33 in   Mostly Cloudy
3:53 PM 73.9 °F 63.0 °F 68% 29.73 in 10.0 mi West 12.7 mph 27.6 mph N/A   Partly Cloudy
4:53 PM 75.9 °F 61.0 °F 60% 29.73 in 10.0 mi WNW 17.3 mph 23.0 mph N/A   Mostly Cloudy
5:53 PM 73.9 °F 59.0 °F 59% 29.73 in 10.0 mi West 13.8 mph 29.9 mph N/A   Clear
6:53 PM 73.0 °F 59.0 °F 61% 29.74 in 10.0 mi West 10.4 mph - N/A   Partly Cloudy
7:53 PM 70.0 °F 57.9 °F 65% 29.78 in 10.0 mi West 8.1 mph - N/A   Clear
8:53 PM 66.9 °F 59.0 °F 76% 29.79 in 10.0 mi SW 3.5 mph - N/A   Mostly Cloudy
9:53 PM 66.9 °F 59.0 °F 76% 29.79 in 10.0 mi Calm Calm - N/A   Mostly Cloudy
10:53 PM 63.0 °F 59.0 °F 87% 29.80 in 10.0 mi Calm Calm - N/A   Scattered Clouds
11:53 PM 61.0 °F 59.0 °F 93% 29.79 in 10.0 mi Calm Calm - N/A   Mostly Cloudy